Temp
55 56 56 56 56 56 56 56 56 56 57 57 58 58 58 58 56 61 57 62 56 57 61 60 58 51 53 50 40 50 50 45 39 35 35 35 34 34 35 41 38 38 36 37 39 36 32 51 50 38 43 53 57 58
55 55 55 55 55 55 55 56 56 56 57 57 58 58 58 58 57 58 58 59 57 50 60 64 63 63 58 55 46 51 49 44 41 36 37 36 34 36 35 32 42 37 42 38 42 44 47 48 46 50 50 50 54 54
55 55 55 55 55 55 55 56 56 56 57 57 58 59 58 57 57 58 66 62 58 59 63 63 63 65 68 65 66 46 55 54 46 46 39 38 34 36 34 34 34 35 40 38 36 43 43 46 49 50 51 52 56 57
55 55 55 55 55 55 55 55 56 56 56 57 58 58 58 57 57 58 66 65 63 61 56 60 68 63 67 68 63 61 59 61 56 52 44 38 36 40 35 34 34 35 37 34 35 40 43 45 47 49 50 53 54 57
54 54 55 54 54 55 55 55 55 56 56 56 57 58 58 57 56 61 68 68 68 59 56 61 65 66 66 60 60 61 61 59 61 51 42 39 41 39 43 40 35 40 38 35 34 41 42 42 46 49 48 49 50 50
54 54 54 54 54 55 55 55 55 56 56 56 57 57 57 56 54 60 57 66 68 66 57 56 62 57 62 62 54 57 60 61 61 56 49 47 47 42 36 34 38 43 45 43 40 45 44 45 47 48 47 50 51 50
54 54 54 54 54 54 54 55 55 56 56 56 56 57 56 56 62 61 60 62 59 66 53 55 59 60 56 57 49 56 60 63 60 54 46 46 46 45 38 33 40 46 47 48 49 47 43 44 43 47 48 50 51 50
54 54 54 54 54 54 54 55 55 56 55 55 56 56 56 55 56 61 65 55 61 58 59 49 59 57 61 56 50 48 54 62 59 55 54 47 50 45 35 48 49 50 52 52 51 51 47 47 47 47 50 51 48 47
54 54 54 54 54 54 54 54 54 55 55 55 56 56 62 60 60 61 56 55 62 55 53 55 51 52 63 58 58 53 55 49 61 51 55 56 37 34 45 51 53 52 52 53 56 54 52 48 48 47 47 49 47 46
54 54 54 54 54 54 54 54 54 54 54 55 60 61 57 61 56 57 55 53 53 53 54 45 62 54 63 54 51 52 49 49 43 53 59 50 45 54 56 57 56 56 55 57 53 51 51 49 47 49 46 47 47 46
54 54 53 53 53 53 54 53 54 55 54 64 64 65 64 56 59 55 51 50 54 47 50 52 54 57 65 51 54 61 46 52 40 50 51 48 44 53 57 58 59 59 59 57 57 57 57 55 52 50 50 49 47 47
54 53 53 53 53 53 53 53 54 60 70 62 63 63 66 59 56 55 60 58 53 55 64 60 63 60 61 62 57 56 51 52 43 57 53 38 53 56 57 58 59 60 60 59 59 58 58 57 57 56 54 53 52 50
53 53 53 53 53 53 52 53 53 54 56 67 63 60 61 62 46 55 52 57 60 66 68 66 61 63 52 57 54 54 50 51 61 53 38 52 56 59 60 60 60 62 62 61 59 59 59 59 59 58 57 58 57 54
53 53 53 53 53 51 50 54 53 55 62 63 60 42 58 58 62 63 63 64 68 68 67 65 63 59 58 53 60 50 56 57 49 38 39 56 56 58 61 62 60 60 61 61 61 60 59 59 59 60 60 60 59 57
53 53 53 55 54 54 54 54 53 60 66 62 63 47 60 70 69 70 70 68 72 72 68 65 62 62 58 56 59 56 48 43 43 45 54 59 57 58 58 60 61 61 62 62 62 62 60 60 60 60 60 61 60 59
53 52 61 54 53 54 53 54 57 66 66 63 62 62 69 67 66 68 68 67 73 72 69 66 61 56 55 57 51 47 43 39 48 54 59 60 56 58 58 60 61 62 62 64 63 62 62 61 60 60 62 62 61 60
52 70 53 53 53 53 54 65 66 62 65 62 66 72 70 68 67 67 68 67 70 65 60 59 50 51 58 50 43 50 41 48 54 59 61 57 57 58 59 60 61 62 62 63 62 62 61 63 62 61 58 59 61 61
65 65 54 53 56 55 65 65 67 66 61 68 66 70 73 71 67 68 66 64 63 65 61 57 60 48 46 38 40 43 48 55 59 58 60 60 59 59 60 60 61 61 62 62 61 62 61 62 61 61 60 61 62 62
61 59 54 53 55 64 67 65 67 63 68 72 72 74 72 70 64 64 63 64 66 68 65 63 54 50 40 44 44 47 54 55 58 61 63 61 60 59 59 61 61 62 61 61 62 61 62 60 61 63 64 63 61 62
52 53 53 53 55 67 63 68 70 66 65 70 72 71 69 63 67 66 67 65 68 67 59 56 51 45 46 53 56 58 57 52 60 62 61 63 65 62 60 60 62 62 63 61 62 50 62 60 63 63 62 61 61 61
53 60 54 61 66 67 68 70 68 71 70 68 70 68 64 66 66 65 64 68 63 61 56 60 59 57 59 61 61 59 58 61 61 61 60 62 63 64 64 64 65 67 65 61 61 59 55 58 61 62 61 61 63 64
69 55 69 64 68 67 66 73 69 71 68 70 69 68 65 62 63 62 66 62 59 62 63 60 59 59 58 57 58 60 61 60 62 60 48 54 63 62 63 64 64 64 64 62 63 62 60 60 61 60 61 59 57 61
56 61 69 68 63 58 58 72 64 68 63 66 68 64 64 63 64 67 57 62 59 63 65 62 60 62 59 62 62 61 61 61 62 64 62 65 63 65 65 64 64 61 61 61 64 64 60 50 57 59 59 59 58 59
53 66 62 64 64 56 69 65 70 67 67 65 63 59 60 61 65 65 58 59 62 64 64 60 60 59 65 61 65 64 60 64 65 62 61 63 62 60 65 65 64 63 61 63 63 65 60 58 54 61 57 56 57 56
52 53 56 41 65 61 61 63 63 65 60 61 59 61 61 65 60 58 56 59 61 61 62 63 66 63 59 64 66 65 62 66 65 59 62 64 65 63 62 63 60 61 64 63 60 59 57 61 63 57 54 59 55 55
40 59 50 64 65 62 66 60 61 60 62 59 61 65 65 61 55 52 59 61 61 60 60 59 59 62 65 64 63 64 64 67 65 62 63 67 66 62 57 55 54 52 63 60 59 58 56 58 56 55 56 54 44 55
47 61 67 71 69 69 66 66 65 64 59 59 63 61 61 54 53 59 67 65 63 65 64 66 66 64 63 63 63 64 65 65 61 61 64 65 65 64 61 56 54 56 59 62 59 56 55 58 58 58 58 58 58 58
65 66 62 66 65 68 62 62 61 60 65 67 65 58 57 57 57 64 66 66 66 66 66 66 65 65 63 63 64 64 65 64 63 63 63 63 63 63 61 61 60 45 59 59 59 60 60 58 57 56 56 56 55 58
63 70 69 64 65 65 64 64 67 71 72 69 65 63 62 66 67 67 66 67 68 68 65 64 63 66 65 63 62 62 63 63 59 55 54 56 56 58 63 59 59 59 58 59 38 47 55 56 56 57 56 56 56 58
67 72 67 65 64 66 71 74 72 69 72 72 69 65 65 65 67 69 67 67 66 66 66 66 66 65 62 61 58 57 60 61 60 59 55 54 56 60 61 62 59 59 62 62 58 57 43 53 49 58 56 56 54 55
74 71 67 69 69 72 74 72 71 70 69 69 70 68 64 63 65 68 69 68 68 66 65 64 64 64 62 60 60 58 55 59 58 58 59 61 61 60 60 61 62 62 61 62 60 57 56 55 54 54 54 53 53 53
71 68 69 65 69 70 69 69 69 68 68 65 65 66 64 62 59 62 66 67 65 65 55 62 62 59 61 60 59 58 49 59 59 59 58 59 59 59 61 62 62 61 61 60 59 58 57 55 54 53 53 51 51 52
71 71 70 70 67 63 68 68 66 65 67 66 65 64 65 63 59 63 66 69 68 66 65 64 63 62 60 59 58 56 53 56 46 38 39 38 37 45 59 61 61 60 59 59 59 58 56 54 54 53 52 52 52 52
MSLP
1025.16 1024.75 1024.36 1024.06 1023.74 1023.13 1022.93 1022.66 1022.21 1021.72 1021.39 1021.23 1021.00 1020.85 1020.83 1020.80 1020.96 1020.57 1021.06 1020.99 1020.80 1019.61 1018.49 1018.58 1018.68 1018.67 1018.43 1018.56 1018.45 1017.66 1017.10 1017.81 1018.43 1018.36 1017.86 1017.14 1016.81 1016.59 1016.01 1014.91 1014.61 1014.45 1014.77 1014.45 1014.24 1013.14 1012.41 1012.48 1012.25 1012.58 1011.47 1010.24 1009.30 1008.42
1024.88 1024.52 1024.09 1023.80 1023.54 1022.99 1022.77 1022.49 1022.10 1021.60 1021.34 1021.19 1020.98 1020.78 1020.78 1020.83 1020.97 1020.83 1020.62 1021.45 1021.55 1020.86 1018.71 1018.68 1018.51 1018.59 1018.76 1018.82 1018.94 1018.00 1017.79 1018.12 1018.88 1019.01 1018.63 1018.29 1017.69 1017.22 1016.53 1015.94 1015.69 1015.39 1014.90 1014.78 1014.16 1013.00 1013.24 1013.31 1013.22 1012.76 1012.21 1011.27 1010.26 1009.68
1024.62 1024.24 1023.82 1023.52 1023.39 1022.82 1022.64 1022.35 1021.94 1021.47 1021.26 1021.13 1021.00 1020.73 1020.77 1020.86 1021.08 1020.94 1020.28 1020.91 1020.96 1019.53 1017.99 1017.58 1017.25 1018.06 1018.20 1018.36 1018.65 1018.44 1017.24 1017.80 1018.60 1019.30 1019.10 1018.71 1018.18 1018.14 1017.41 1017.27 1017.07 1016.73 1016.41 1015.78 1015.68 1014.19 1014.10 1013.83 1013.40 1012.61 1012.13 1011.41 1010.74 1010.30
1024.28 1023.91 1023.53 1023.12 1023.03 1022.58 1022.36 1022.24 1021.85 1021.44 1021.30 1021.12 1021.04 1020.94 1020.95 1021.08 1021.25 1021.05 1020.00 1020.24 1020.14 1019.16 1017.58 1016.78 1017.56 1017.44 1017.94 1017.99 1018.25 1018.36 1017.85 1017.75 1018.14 1018.40 1018.42 1018.61 1018.60 1018.60 1018.20 1018.11 1017.68 1017.36 1016.88 1016.26 1015.81 1015.17 1014.70 1014.32 1013.65 1012.92 1011.99 1011.38 1010.84 1010.57
1023.86 1023.59 1023.25 1022.85 1022.75 1022.39 1022.08 1022.15 1021.77 1021.36 1021.23 1021.04 1021.02 1020.99 1020.98 1021.09 1021.22 1020.86 1020.11 1020.02 1020.04 1019.64 1017.66 1016.43 1016.73 1017.06 1017.46 1017.98 1017.95 1017.87 1017.50 1017.12 1016.80 1017.28 1018.13 1018.46 1018.75 1018.74 1017.80 1017.66 1017.76 1017.42 1016.89 1016.37 1016.04 1015.54 1015.03 1014.92 1014.38 1013.54 1012.60 1012.19 1011.64 1011.48
1023.50 1023.26 1022.91 1022.58 1022.42 1022.14 1021.72 1021.84 1021.54 1021.16 1021.06 1020.88 1020.86 1020.86 1020.85 1020.98 1021.17 1020.56 1019.69 1019.73 1019.83 1019.70 1018.58 1016.20 1016.72 1016.93 1016.96 1017.39 1017.99 1017.69 1017.34 1016.89 1016.64 1016.56 1017.54 1018.33 1018.69 1018.72 1018.23 1018.10 1018.40 1017.60 1017.28 1016.91 1016.25 1015.57 1015.50 1015.12 1014.71 1013.96 1013.07 1012.72 1011.99 1012.04
1023.10 1022.90 1022.52 1022.18 1022.09 1021.85 1021.48 1021.58 1021.38 1021.05 1021.00 1020.84 1020.87 1020.86 1020.83 1020.98 1020.57 1020.10 1019.82 1019.78 1020.26 1019.86 1018.94 1016.59 1015.52 1016.62 1017.15 1017.27 1017.95 1017.48 1017.09 1016.67 1016.39 1017.01 1017.44 1017.88 1018.04 1018.33 1018.10 1017.73 1018.04 1017.34 1017.07 1016.77 1016.50 1015.98 1015.80 1015.51 1015.07 1014.28 1013.30 1012.80 1012.56 1012.06
1022.66 1022.48 1022.12 1021.78 1021.68 1021.48 1021.22 1021.30 1021.06 1020.84 1020.92 1020.88 1020.86 1020.94 1020.96 1021.08 1020.92 1019.90 1019.62 1020.46 1020.24 1019.48 1018.72 1017.40 1015.12 1015.63 1016.61 1016.33 1016.99 1017.93 1016.82 1016.02 1016.34 1016.64 1016.83 1017.13 1017.36 1017.79 1017.69 1016.90 1016.66 1016.64 1016.34 1016.05 1016.00 1015.91 1016.09 1015.87 1015.19 1014.45 1013.71 1012.95 1012.37 1012.55
1022.21 1022.00 1021.60 1021.31 1021.21 1021.04 1020.92 1021.00 1020.72 1020.64 1020.78 1020.64 1020.73 1020.87 1020.42 1020.42 1019.60 1019.57 1020.45 1020.63 1020.26 1020.28 1018.35 1017.33 1015.61 1014.65 1015.80 1015.84 1016.32 1017.21 1016.76 1015.84 1016.20 1015.94 1015.78 1016.05 1017.13 1017.06 1016.63 1016.13 1015.78 1015.76 1015.69 1015.33 1015.29 1015.39 1015.40 1015.34 1014.89 1014.45 1013.94 1013.33 1013.16 1012.99
1021.76 1021.56 1021.12 1020.88 1020.76 1020.53 1020.60 1020.74 1020.48 1020.44 1020.46 1020.53 1020.54 1019.89 1018.95 1019.24 1020.18 1020.39 1020.46 1019.72 1019.54 1019.22 1018.61 1017.44 1015.87 1014.82 1015.02 1015.28 1015.35 1016.00 1016.62 1015.78 1015.70 1015.60 1015.53 1015.52 1015.73 1015.76 1015.74 1015.56 1015.46 1015.34 1015.34 1015.22 1015.02 1015.00 1015.03 1014.99 1015.18 1014.72 1014.58 1014.09 1013.84 1013.66
1021.38 1021.08 1020.70 1020.55 1020.45 1020.03 1020.20 1020.38 1020.02 1020.11 1020.34 1019.78 1018.90 1018.17 1018.98 1020.00 1019.68 1019.22 1018.38 1017.93 1017.62 1017.37 1017.10 1016.36 1015.85 1014.50 1014.29 1014.53 1014.34 1014.52 1015.50 1015.24 1015.27 1015.32 1015.14 1014.98 1015.13 1015.18 1015.38 1015.20 1015.24 1015.03 1015.06 1015.16 1015.16 1015.13 1015.09 1015.11 1015.12 1015.15 1014.84 1015.02 1014.86 1014.55
1020.98 1020.57 1020.29 1020.15 1019.95 1019.64 1019.86 1019.93 1019.74 1019.66 1018.55 1019.19 1019.06 1018.82 1018.64 1018.43 1017.91 1016.97 1015.54 1015.74 1015.63 1014.40 1014.15 1014.26 1014.04 1014.76 1014.47 1014.63 1013.98 1014.14 1013.98 1014.42 1013.95 1014.76 1014.27 1014.91 1014.55 1015.12 1015.12 1015.05 1014.90 1014.87 1014.85 1014.66 1014.86 1014.92 1014.98 1015.03 1014.96 1014.72 1014.90 1014.87 1014.78 1014.91
1020.56 1020.13 1019.83 1019.59 1019.34 1019.31 1019.51 1019.39 1019.38 1019.46 1019.22 1018.61 1018.50 1017.42 1016.77 1016.13 1015.43 1014.15 1013.30 1012.98 1012.46 1012.51 1012.47 1012.75 1013.01 1013.69 1014.92 1014.64 1014.04 1013.70 1013.24 1013.16 1014.06 1013.71 1014.63 1013.96 1014.43 1014.62 1014.80 1014.88 1014.71 1014.57 1014.51 1014.52 1014.55 1014.55 1014.49 1014.59 1014.65 1014.66 1014.51 1014.76 1014.71 1014.73
1020.06 1019.67 1019.28 1018.66 1018.60 1019.03 1019.11 1018.86 1019.09 1019.51 1018.76 1017.30 1016.40 1015.86 1014.77 1013.68 1013.12 1012.35 1012.10 1011.79 1011.69 1011.96 1011.90 1012.33 1012.41 1013.12 1013.56 1013.82 1013.00 1012.86 1013.41 1013.68 1013.35 1013.91 1014.05 1013.44 1014.28 1014.44 1014.60 1014.71 1014.60 1014.40 1014.39 1014.22 1014.21 1014.18 1014.30 1014.24 1014.26 1014.42 1014.39 1013.99 1014.08 1014.25
1019.66 1019.31 1018.95 1018.52 1018.63 1018.72 1018.42 1018.44 1018.96 1018.97 1017.50 1016.24 1015.38 1014.14 1012.90 1012.05 1012.12 1011.68 1011.64 1011.55 1011.12 1011.74 1011.73 1011.71 1012.15 1012.53 1012.44 1012.77 1012.84 1013.18 1013.63 1013.77 1014.04 1013.56 1013.49 1013.80 1014.66 1014.78 1014.63 1014.62 1014.42 1014.22 1014.15 1014.15 1014.25 1014.30 1014.40 1014.40 1014.41 1014.45 1014.63 1014.72 1014.79 1014.54
1019.23 1018.91 1018.18 1018.62 1018.72 1018.36 1018.21 1018.57 1018.92 1017.88 1016.61 1015.52 1014.49 1012.90 1011.70 1011.61 1011.23 1011.03 1011.17 1011.04 1011.20 1011.34 1011.81 1011.86 1011.71 1012.26 1012.22 1012.75 1013.14 1013.47 1014.29 1014.42 1013.91 1014.11 1014.08 1014.48 1014.99 1014.90 1014.88 1014.76 1014.72 1014.56 1014.42 1014.27 1014.38 1014.51 1014.33 1014.52 1014.63 1014.66 1014.57 1014.52 1014.39 1014.56
1018.73 1017.64 1018.37 1018.72 1018.72 1018.62 1018.31 1017.77 1017.40 1016.50 1015.09 1014.12 1012.56 1011.79 1011.59 1011.51 1011.30 1011.32 1011.47 1011.54 1011.99 1011.91 1011.34 1012.04 1012.34 1012.25 1013.10 1013.65 1014.80 1015.12 1015.80 1015.50 1014.89 1014.56 1014.68 1015.15 1015.28 1015.18 1015.00 1014.87 1014.75 1014.58 1014.57 1014.44 1014.58 1014.79 1014.81 1014.73 1014.82 1014.80 1014.68 1014.72 1014.59 1014.49
1018.02 1017.59 1018.32 1018.54 1018.71 1018.52 1017.66 1017.34 1016.02 1014.86 1013.74 1012.50 1011.74 1011.00 1011.15 1011.45 1011.68 1011.63 1012.19 1012.54 1012.50 1011.79 1012.36 1012.16 1012.68 1013.72 1014.55 1015.67 1016.41 1017.09 1016.62 1015.87 1015.37 1015.32 1015.11 1015.20 1015.35 1015.32 1015.20 1015.06 1014.95 1014.79 1014.64 1014.67 1014.86 1014.91 1014.94 1014.94 1014.74 1014.67 1014.94 1014.99 1014.26 1014.18
1017.81 1017.76 1017.85 1018.31 1018.36 1017.30 1016.10 1015.85 1015.40 1013.59 1012.24 1011.42 1011.19 1011.10 1011.40 1011.71 1012.68 1012.95 1012.93 1012.95 1012.91 1012.87 1012.58 1012.65 1013.44 1014.53 1016.36 1016.98 1016.87 1016.97 1016.33 1016.15 1015.26 1015.01 1014.94 1015.18 1015.38 1015.40 1015.36 1015.07 1014.81 1014.65 1014.73 1014.86 1014.87 1014.81 1015.04 1015.51 1015.36 1015.09 1014.96 1014.81 1014.59 1014.79
1017.39 1017.30 1017.02 1017.05 1017.60 1016.15 1015.18 1014.31 1014.54 1013.24 1011.86 1011.39 1011.43 1011.08 1011.52 1012.28 1012.62 1012.91 1012.77 1012.95 1012.65 1012.47 1012.72 1013.38 1014.77 1016.06 1016.44 1016.35 1016.58 1016.40 1016.51 1016.70 1015.28 1014.27 1014.22 1014.64 1015.04 1015.12 1015.21 1015.06 1014.66 1014.87 1014.81 1015.15 1015.20 1015.92 1015.04 1015.54 1015.42 1015.70 1015.81 1015.88 1015.24 1015.16
1017.34 1017.03 1017.56 1016.70 1016.44 1015.79 1014.66 1013.43 1012.90 1012.37 1011.94 1011.51 1011.63 1011.51 1011.81 1012.29 1012.38 1012.40 1012.47 1012.84 1012.65 1013.00 1013.50 1014.44 1015.18 1015.91 1016.19 1016.03 1015.95 1016.10 1015.96 1015.52 1014.99 1014.86 1014.93 1014.56 1015.12 1015.06 1014.95 1014.89 1014.81 1014.66 1014.44 1014.91 1015.22 1015.60 1015.39 1015.65 1015.97 1016.17 1016.18 1016.07 1015.91 1015.82
1016.34 1016.85 1016.11 1016.21 1015.23 1014.78 1014.15 1013.15 1012.72 1012.38 1012.20 1011.39 1011.38 1011.60 1011.65 1012.02 1012.42 1012.87 1013.07 1012.72 1013.35 1013.82 1014.18 1014.80 1015.15 1015.32 1015.58 1015.71 1015.47 1015.24 1015.17 1015.38 1015.45 1015.53 1015.68 1015.47 1014.94 1015.00 1015.06 1014.98 1014.74 1014.69 1014.75 1014.92 1015.03 1015.07 1015.50 1016.03 1016.48 1016.59 1016.46 1016.68 1016.79 1016.72
1016.57 1016.30 1015.31 1014.97 1014.56 1014.14 1013.48 1013.08 1012.46 1011.86 1011.45 1011.20 1011.24 1011.31 1011.89 1012.35 1013.00 1013.48 1013.37 1013.58 1014.16 1014.43 1014.62 1014.98 1015.21 1015.16 1015.14 1014.94 1014.95 1015.06 1015.23 1015.15 1014.98 1015.12 1015.38 1015.40 1015.54 1015.62 1015.50 1015.49 1015.41 1015.34 1015.16 1015.32 1015.50 1015.32 1015.77 1016.50 1016.80 1016.82 1017.01 1017.04 1017.09 1016.88
1016.45 1015.33 1014.54 1014.01 1013.72 1013.10 1012.64 1012.12 1011.99 1011.71 1011.60 1011.34 1011.28 1011.52 1012.22 1012.80 1013.08 1012.73 1013.10 1013.77 1014.30 1014.55 1014.68 1015.01 1015.17 1015.02 1014.49 1014.60 1013.96 1014.28 1014.84 1014.93 1014.88 1015.27 1015.81 1015.28 1015.22 1015.91 1015.99 1015.97 1015.95 1016.12 1016.25 1015.84 1015.75 1015.71 1016.04 1016.55 1016.88 1016.98 1017.11 1017.38 1017.32 1017.20
1015.90 1015.27 1014.57 1013.82 1013.20 1012.71 1011.92 1011.48 1011.37 1011.35 1011.35 1011.52 1011.58 1011.78 1012.45 1012.96 1012.66 1012.78 1013.27 1013.80 1014.26 1014.58 1014.80 1014.82 1014.51 1014.47 1014.47 1013.90 1013.77 1014.38 1015.07 1014.66 1014.56 1014.84 1014.96 1015.27 1015.27 1015.71 1015.93 1016.22 1016.60 1016.90 1016.57 1016.25 1016.40 1016.55 1016.80 1016.66 1016.87 1017.29 1017.85 1017.29 1017.48 1017.59
1015.03 1014.16 1013.78 1012.48 1012.11 1011.90 1011.30 1011.08 1011.09 1011.23 1011.36 1011.42 1011.66 1012.17 1012.64 1012.67 1012.66 1013.02 1013.42 1014.02 1014.53 1014.93 1014.96 1014.98 1014.78 1014.32 1014.07 1014.49 1014.23 1014.34 1014.62 1014.95 1014.91 1014.54 1014.69 1015.16 1015.28 1015.60 1016.24 1016.86 1017.14 1017.87 1017.24 1017.44 1017.20 1016.88 1016.98 1017.21 1017.38 1017.51 1017.64 1017.84 1018.32 1017.76
1013.86 1012.65 1012.40 1012.20 1011.83 1011.58 1011.35 1011.47 1011.50 1011.20 1011.08 1011.16 1011.57 1011.93 1012.26 1012.35 1012.72 1013.53 1013.97 1014.53 1014.68 1015.01 1015.34 1015.17 1014.87 1014.84 1015.02 1015.20 1015.30 1015.54 1015.50 1015.48 1015.73 1015.81 1015.80 1015.74 1015.89 1016.16 1016.55 1017.16 1017.67 1018.08 1018.07 1018.01 1018.00 1017.77 1017.51 1017.38 1017.61 1017.79 1017.81 1017.84 1017.93 1017.96
1012.55 1012.08 1011.49 1011.39 1011.47 1011.41 1011.03 1010.98 1010.87 1010.63 1010.68 1011.31 1011.66 1011.64 1011.89 1012.29 1013.10 1013.83 1014.29 1015.02 1015.39 1015.62 1015.71 1015.86 1015.99 1015.98 1016.02 1016.16 1016.15 1015.91 1015.80 1016.03 1016.36 1016.36 1016.53 1016.78 1016.98 1017.25 1017.62 1017.88 1018.36 1018.71 1018.43 1018.65 1018.35 1017.97 1017.70 1017.79 1018.04 1018.15 1018.24 1018.34 1018.50 1018.45
1011.80 1011.24 1011.14 1010.75 1010.72 1010.80 1010.68 1010.46 1010.23 1010.51 1010.91 1011.01 1011.14 1011.58 1012.31 1013.06 1013.81 1014.03 1014.77 1015.18 1015.51 1015.50 1015.62 1015.91 1016.28 1016.38 1016.52 1016.80 1017.01 1016.96 1016.73 1016.38 1016.04 1016.08 1016.11 1016.29 1016.89 1017.68 1017.84 1018.24 1018.36 1018.45 1018.60 1018.83 1019.38 1019.18 1018.99 1018.78 1018.84 1018.62 1018.71 1018.75 1018.81 1018.79
1010.60 1010.56 1010.25 1010.04 1009.95 1009.66 1009.83 1010.14 1010.30 1011.10 1011.37 1011.47 1011.95 1012.60 1013.05 1013.75 1014.40 1014.78 1015.00 1015.19 1015.11 1015.29 1015.68 1016.02 1016.22 1016.32 1016.44 1016.66 1017.18 1017.64 1017.76 1017.69 1017.44 1017.06 1017.07 1017.49 1017.86 1018.10 1018.24 1018.22 1018.47 1018.67 1018.66 1018.63 1018.72 1019.32 1019.73 1019.30 1019.43 1019.05 1019.05 1019.05 1019.24 1019.30
1010.02 1010.02 1009.75 1009.47 1009.25 1009.72 1010.05 1010.56 1011.03 1011.33 1011.48 1011.61 1011.99 1011.95 1012.49 1013.63 1014.55 1014.89 1014.76 1014.93 1015.28 1015.64 1015.92 1016.14 1016.46 1016.78 1016.99 1017.24 1017.38 1017.63 1018.21 1018.70 1019.00 1018.97 1018.68 1018.69 1018.77 1018.84 1018.86 1018.90 1018.90 1018.93 1018.98 1018.92 1018.85 1019.00 1019.30 1019.35 1019.32 1019.37 1019.35 1019.42 1019.51 1019.52
1009.37 1009.18 1008.94 1008.86 1009.09 1010.10 1010.44 1010.30 1010.47 1010.62 1010.94 1011.28 1011.55 1012.10 1012.71 1013.11 1013.64 1014.46 1015.05 1015.15 1015.23 1015.38 1016.26 1016.34 1016.77 1017.47 1017.97 1018.47 1018.77 1019.07 1019.08 1019.17 1019.47 1019.70 1019.83 1019.84 1019.86 1019.72 1019.43 1019.29 1019.30 1019.32 1019.29 1019.18 1019.14 1019.19 1019.31 1019.34 1019.50 1019.68 1019.75 1019.92 1019.96 1019.94
1008.58 1008.61 1008.64 1008.75 1009.11 1009.49 1009.75 1009.96 1010.05 1010.22 1010.54 1010.56 1010.89 1011.50 1011.84 1012.33 1012.93 1014.07 1015.13 1014.98 1014.84 1015.30 1015.87 1016.59 1017.41 1018.01 1018.54 1018.78 1019.24 1019.65 1019.82 1020.32 1021.20 1021.52 1021.36 1021.41 1021.40 1020.75 1019.67 1019.56 1019.84 1019.92 1019.81 1019.58 1019.50 1019.62 1019.72 1019.83 1019.86 1019.99 1020.02 1020.08 1020.13 1020.17
Wind_Speed
10 11 13 14 13 12 11 11 10 10 9 8 6 2 1 4 9 3 3 1 4 4 5 5 4 6 6 4 4 8 3 3 2 3 3 3 3 1 3 3 9 11 9 9 12 12 15 9 0 4 6 16 9 11
10 12 12 13 13 11 11 10 10 8 8 7 6 2 2 6 9 5 2 2 1 2 5 2 3 3 3 5 4 6 5 4 1 3 1 3 2 3 4 2 4 6 1 3 5 4 9 5 11 11 11 12 11 9
11 12 12 11 13 11 10 10 9 7 6 6 6 1 4 8 9 6 1 2 2 4 5 6 3 5 3 2 2 4 5 4 3 1 2 2 3 3 4 4 4 3 4 3 3 2 7 10 8 9 10 9 10 9
11 12 12 11 11 9 9 10 8 6 5 5 3 2 5 6 7 6 2 4 4 3 4 4 4 3 2 3 1 5 7 1 0 2 2 3 3 5 3 2 2 3 4 2 5 8 8 7 9 9 12 3 5 4
11 12 11 10 10 9 8 9 8 5 4 4 1 2 4 8 6 6 2 2 2 5 5 3 3 4 6 1 4 2 5 4 1 4 3 4 3 4 4 2 3 8 7 4 2 8 5 6 10 12 11 10 8 8
11 12 11 10 10 9 7 9 7 3 3 2 0 4 6 7 8 1 5 4 3 3 5 3 4 5 4 3 1 5 4 3 3 4 3 2 2 6 4 4 8 11 10 13 10 7 10 11 10 12 10 8 8 9
11 12 11 9 10 8 7 8 7 4 3 1 2 3 6 7 7 4 6 5 1 3 3 5 2 4 3 2 2 2 4 1 3 2 3 2 2 3 3 3 10 12 11 12 13 11 10 15 9 13 11 10 12 13
12 12 10 10 10 9 7 8 6 4 4 2 3 1 3 5 9 6 3 5 5 4 3 4 2 4 5 1 2 1 4 3 3 1 2 3 2 3 2 10 5 5 8 10 12 12 12 12 13 15 15 14 16 15
11 12 10 10 10 9 7 8 6 4 4 4 4 3 4 5 3 3 7 5 1 3 3 2 4 5 3 1 1 3 4 1 2 1 2 2 2 3 5 10 12 10 9 11 13 13 15 17 17 17 19 21 18 17
12 11 10 10 10 8 8 8 4 4 6 5 5 5 3 2 11 8 3 3 3 3 2 4 4 4 2 2 4 4 2 1 1 2 3 3 2 3 6 8 8 9 9 9 12 14 15 16 16 18 17 16 18 17
12 11 11 12 10 8 8 7 4 5 7 5 4 2 5 6 4 3 2 2 1 3 4 5 5 6 3 4 3 2 4 3 1 1 3 2 3 5 5 7 6 8 7 7 6 8 10 11 11 12 14 13 12 15
12 12 12 12 10 7 6 7 6 5 2 4 3 1 3 4 5 6 2 4 4 3 3 4 3 4 1 3 4 2 2 4 1 4 2 2 3 3 3 5 6 6 6 6 6 7 8 9 10 11 11 12 12 8
13 13 14 11 9 7 8 8 11 2 4 3 4 4 4 3 3 4 4 4 4 4 3 4 5 3 2 4 4 4 3 2 1 1 1 1 5 0 2 4 5 5 6 6 4 5 7 8 9 10 10 10 11 11
13 14 15 9 4 7 8 6 10 6 5 4 4 4 5 3 3 5 8 7 5 5 6 6 3 4 5 4 3 4 3 3 1 2 4 4 6 4 3 3 6 6 4 7 7 5 5 8 10 10 10 11 10 11
13 13 8 5 4 9 8 7 13 5 3 4 3 4 5 3 4 5 5 6 4 3 5 4 4 3 3 4 3 1 3 0 3 3 5 6 5 5 5 5 7 6 5 3 7 7 6 6 7 9 8 9 8 7
14 12 3 5 7 1 12 12 5 3 3 4 5 6 5 6 6 6 6 6 4 3 2 3 3 3 3 3 4 2 2 3 4 3 5 4 5 5 5 7 6 5 5 2 5 7 6 7 7 8 8 10 9 9
15 1 8 5 5 7 7 3 4 5 4 4 5 5 7 7 8 6 4 6 3 7 6 4 3 3 3 1 3 4 5 7 4 3 3 4 5 6 6 7 5 4 2 2 4 6 5 4 6 7 8 9 9 8
4 5 7 6 4 4 4 4 4 4 6 6 6 6 2 5 6 4 3 4 5 4 3 3 2 2 2 2 4 3 5 4 2 1 2 3 5 5 5 6 6 5 2 4 4 4 5 3 3 5 4 6 6 7
11 12 15 10 8 4 3 5 4 5 5 5 5 5 4 3 3 2 3 2 2 2 3 2 0 3 3 2 4 5 4 6 2 1 1 2 4 5 5 5 5 3 4 3 0 4 6 5 6 4 4 5 6 6
13 8 11 11 14 3 4 3 2 5 5 4 4 4 4 3 3 2 3 2 2 1 4 4 4 4 6 5 5 2 2 7 9 3 4 4 2 2 4 6 5 3 4 6 4 6 3 5 4 6 6 5 6 7
4 6 9 8 5 4 4 2 4 3 5 4 3 5 2 1 3 4 5 2 4 4 4 3 2 4 7 6 4 3 5 7 5 5 5 4 4 3 3 3 2 1 1 3 3 1 3 6 4 3 4 5 5 5
2 8 3 3 3 4 4 3 4 3 4 3 4 3 2 2 4 4 3 5 3 4 4 2 2 3 4 7 7 6 7 3 2 1 4 3 1 3 3 4 4 3 3 4 4 3 3 5 3 2 3 4 2 6
3 5 3 3 3 2 4 2 4 2 4 3 3 1 2 2 3 1 2 2 3 0 0 0 4 6 6 5 3 4 6 5 3 2 3 1 4 2 2 3 4 5 6 5 4 3 6 3 4 1 3 2 3 2
3 3 3 3 4 3 2 3 2 3 2 3 3 3 3 4 3 1 3 3 4 2 3 4 3 4 3 5 2 3 4 4 3 4 2 5 3 3 1 1 3 5 5 5 5 0 4 4 3 1 3 5 3 4
1 1 2 4 3 4 4 3 3 2 2 2 3 1 3 2 1 3 4 4 3 4 4 3 3 2 4 6 3 4 2 3 2 3 2 4 1 3 3 1 5 4 4 2 1 2 1 2 2 8 5 3 5 5
1 4 4 3 2 4 1 3 1 2 2 2 1 2 0 1 1 4 4 5 5 4 4 5 4 4 4 5 6 5 5 4 5 5 4 1 2 1 2 1 6 5 4 6 8 7 4 2 3 2 2 5 1 6
2 5 4 2 3 2 3 0 2 3 3 2 2 2 1 2 3 3 2 5 4 5 5 4 6 7 7 7 6 6 5 5 6 5 4 4 5 5 4 4 4 3 4 2 2 3 2 2 2 2 1 3 4 5
4 2 5 4 4 3 4 2 3 3 2 2 2 3 1 3 3 3 3 3 4 5 5 6 6 6 7 6 6 6 4 5 6 7 8 7 6 6 9 6 7 6 7 8 8 5 4 5 4 3 4 3 4 4
4 3 4 6 5 4 4 3 2 1 1 3 2 2 3 3 3 4 5 6 5 5 4 4 4 4 5 6 6 6 6 6 5 3 2 5 8 5 4 5 4 4 5 8 9 9 9 8 6 5 5 5 4 4
4 4 4 4 4 3 2 1 1 4 1 2 3 4 4 4 4 3 6 5 5 4 4 4 3 5 5 5 6 7 7 7 7 6 6 6 5 5 4 3 5 4 3 3 6 8 3 3 5 2 2 4 4 3
2 4 4 4 2 1 1 3 3 4 4 4 2 2 4 5 5 3 4 4 5 6 5 4 5 5 5 6 5 5 6 6 8 8 6 6 6 5 5 4 3 3 4 3 4 5 4 3 4 3 4 4 5 3
4 5 3 4 2 3 3 4 4 4 4 4 4 4 5 5 6 6 6 6 6 6 5 4 5 6 6 6 7 7 6 6 5 5 6 6 5 5 4 3 3 4 4 4 4 5 4 3 5 4 4 4 5 5
3 4 4 2 3 4 4 4 3 2 3 3 4 5 6 5 5 5 5 5 4 7 6 7 7 7 8 8 8 7 8 10 11 9 9 11 12 11 2 4 4 4 3 4 4 5 5 4 5 4 3 3 4 5
Wind_Direction
318 324 335 337 339 345 341 334 337 344 345 346 348 13 116 165 166 253 85 342 334 0 60 15 31 348 340 12 313 332 253 84 293 267 288 358 294 90 267 214 167 181 196 200 230 243 253 29 11 243 342 315 351 329
319 323 333 334 336 343 340 331 334 348 345 353 347 348 148 175 170 242 125 120 215 256 354 8 327 317 315 316 307 311 359 28 358 289 300 297 312 311 325 144 336 241 306 284 281 228 2 337 283 268 278 288 308 313
316 319 328 334 336 342 337 329 336 350 352 352 327 302 163 174 179 264 96 146 240 263 206 224 109 128 239 326 316 290 51 46 92 252 309 301 325 322 358 40 277 236 340 254 354 301 286 300 294 302 273 281 299 294
312 319 326 332 331 337 338 326 330 352 360 357 351 104 154 172 173 252 261 141 267 295 292 106 151 189 123 63 346 289 311 128 358 261 13 339 331 4 323 291 303 272 270 245 244 278 250 299 346 345 3 41 304 311
311 313 320 327 326 328 339 325 327 352 4 4 269 219 176 176 188 256 264 200 290 307 319 320 285 133 158 126 315 318 292 274 312 86 6 18 329 320 304 297 13 352 0 350 31 5 10 24 3 1 22 24 16 18
308 311 317 323 324 320 328 311 309 321 332 12 212 207 199 185 216 271 215 168 200 274 273 264 95 224 202 214 310 306 332 310 346 355 86 22 23 348 356 18 335 356 34 22 3 14 24 7 13 2 15 23 35 27
308 308 313 321 322 316 320 303 296 296 286 287 249 237 213 201 246 293 3 32 145 240 253 270 198 165 156 286 94 257 252 355 347 55 34 353 359 344 314 14 4 12 36 33 26 5 19 22 3 2 18 22 45 34
305 304 313 320 313 310 313 295 287 280 264 265 232 348 217 218 268 244 135 173 233 261 261 285 291 180 187 244 181 156 271 208 58 40 342 33 337 14 49 1 55 28 50 48 46 42 46 12 18 13 13 26 39 37
302 302 314 316 307 310 305 286 278 273 250 238 219 200 213 223 244 56 110 163 321 304 305 278 310 8 186 239 209 142 289 181 114 301 58 23 338 36 354 6 4 18 33 29 56 35 39 34 14 27 15 18 27 27
299 305 317 309 301 311 298 281 276 261 230 200 218 214 215 100 112 133 166 218 197 180 231 251 334 305 270 171 198 143 273 238 277 12 264 82 4 37 15 18 359 2 8 23 27 33 31 35 28 18 29 14 16 19
300 308 312 305 304 315 291 258 233 167 181 211 222 252 79 135 211 218 256 205 172 250 195 226 237 302 113 291 319 211 159 184 196 121 280 33 334 52 8 10 9 351 345 17 32 39 33 39 38 30 25 35 28 17
303 309 307 303 307 314 268 222 186 218 302 25 350 239 173 217 220 251 222 148 209 275 170 265 347 242 314 289 282 196 230 184 167 146 280 345 72 23 351 2 356 0 358 345 9 13 25 25 19 31 38 27 37 50
309 310 304 301 300 288 245 211 210 311 217 201 222 229 204 196 291 252 319 301 308 354 322 278 287 180 202 248 251 261 252 48 135 191 192 278 53 205 315 336 358 356 360 15 352 3 0 20 25 20 23 36 39 44
311 313 314 301 261 242 239 217 178 191 253 245 231 283 239 206 253 321 331 321 336 298 321 328 279 220 192 220 266 254 45 249 304 52 252 38 53 16 332 320 309 351 354 8 27 23 14 14 22 30 25 18 26 31
316 316 308 73 316 264 236 178 164 210 252 259 247 250 229 296 290 300 314 289 265 289 296 260 224 251 191 236 229 81 207 261 209 258 8 35 9 322 331 327 320 330 342 20 26 17 30 25 26 30 26 30 34 29
318 300 146 34 323 150 130 133 183 233 234 245 239 256 243 263 297 285 305 304 7 303 285 235 268 322 246 311 233 82 57 243 14 355 6 6 36 30 13 350 317 316 320 290 39 18 17 38 31 22 32 21 37 34
307 278 132 59 39 153 174 240 199 221 254 231 235 243 282 299 292 331 321 349 9 297 318 354 295 274 345 347 45 27 14 2 333 359 39 34 346 344 350 349 321 308 288 199 71 46 32 42 33 32 27 20 11 26
260 126 152 85 316 145 207 219 249 249 244 241 261 300 333 296 319 322 36 351 306 339 266 314 349 57 297 60 60 346 287 263 359 356 356 15 329 330 333 338 337 317 260 163 92 85 54 40 5 64 32 356 6 18
299 304 299 276 236 269 218 191 240 265 250 289 278 288 311 347 56 352 331 340 328 291 274 263 336 31 70 185 198 274 319 330 348 151 107 41 349 339 320 319 305 336 159 139 97 58 79 41 20 14 27 6 15 37
306 296 278 180 191 234 233 190 228 271 280 14 284 330 354 16 0 23 37 27 347 327 30 18 43 158 195 192 212 308 107 230 280 298 48 71 15 278 40 341 0 39 160 150 117 313 124 107 73 63 34 25 15 24
213 123 131 179 187 249 286 263 233 277 321 294 9 321 6 100 44 41 54 0 49 14 44 50 155 207 218 236 279 274 184 260 302 0 2 17 25 8 32 48 46 69 172 99 205 180 240 71 76 73 64 28 39 44
99 188 228 166 248 186 256 219 296 341 262 326 308 333 13 42 47 42 321 54 50 59 51 112 192 215 224 262 282 251 232 220 146 150 217 198 359 70 51 12 6 24 1 10 334 343 49 74 43 63 70 80 60 52
246 215 213 209 246 193 257 235 257 222 277 348 308 356 50 48 41 255 90 36 66 88 62 56 327 323 301 317 359 156 187 209 211 199 130 104 109 77 26 27 19 10 358 38 338 302 77 69 122 340 49 48 15 16
202 257 242 223 213 255 205 233 212 261 270 295 326 9 38 21 317 107 57 46 13 0 326 305 305 319 309 223 218 128 188 207 187 135 228 248 164 100 347 33 39 41 348 349 357 273 116 110 66 346 101 66 356 3
278 270 170 276 229 244 235 235 225 228 286 327 312 42 52 316 339 61 24 46 19 43 10 352 310 340 338 2 32 74 162 240 266 285 163 243 247 175 188 59 56 43 311 76 46 45 77 24 3 64 355 51 37 29
151 184 188 223 171 242 276 275 264 337 304 263 81 72 132 330 356 54 30 26 19 3 1 5 346 344 51 29 15 23 42 347 318 294 68 272 243 53 97 285 77 340 28 26 357 350 69 29 79 72 67 115 116 315
249 191 190 220 291 281 262 252 280 256 239 224 151 212 223 327 52 68 54 40 11 36 31 18 27 37 27 23 25 32 22 33 33 38 45 58 67 65 64 68 107 80 311 33 260 326 71 157 72 242 193 65 70 69
262 259 234 153 218 231 274 259 243 233 189 131 196 207 323 25 77 88 64 76 82 90 81 69 55 49 49 43 27 18 42 98 105 114 109 83 77 87 98 84 62 43 57 28 1 24 36 67 61 64 79 79 52 55
234 196 221 240 227 208 231 240 251 105 115 201 233 138 116 71 89 128 119 127 147 145 128 106 92 96 95 75 46 28 18 358 14 57 11 107 124 108 89 104 109 93 65 101 67 33 33 50 44 71 63 68 88 56
217 196 235 232 232 223 146 246 22 103 167 40 91 130 133 126 97 127 144 161 156 130 100 89 70 48 46 53 68 56 44 38 25 38 67 75 84 111 103 89 79 80 65 61 105 116 147 161 142 157 82 69 62 38
173 201 241 248 251 106 79 117 124 149 168 153 160 198 139 133 140 174 175 140 130 140 144 121 90 57 47 40 42 88 84 68 71 57 48 81 80 81 78 73 74 64 55 51 83 93 112 79 87 81 80 57 58 5
199 221 236 241 186 121 182 201 186 197 171 193 177 161 161 181 170 158 166 168 167 155 108 129 112 93 85 86 86 80 41 86 94 94 88 79 77 76 88 87 92 83 93 97 95 99 91 91 85 78 67 37 26 14
228 221 245 235 191 206 181 204 206 208 215 221 202 202 200 198 177 129 165 211 187 148 147 118 115 110 106 97 100 100 84 83 77 64 58 40 21 356 14 84 75 80 85 73 82 98 94 75 72 46 38 24 16 4